Time,TemperatureF,DewpointF,PressureIn,WindDirection,WindDirectionDegrees,WindSpeedMPH,WindSpeedGustMPH,Humidity,HourlyPrecipIn,Conditions,Clouds,dailyrainin,SolarRadiationWatts/m^2,SoftwareType,DateUTC
2013-07-22 00:04:00,74.1,71.0,29.85,ENE,78,0.0,-999.0,91,-99.99,,,0.00,0,weatherlink.com 1.10,2013-07-22 04:04:00,
2013-07-22 00:19:00,74.0,71.0,29.84,ENE,78,0.0,-999.0,91,-99.99,,,0.00,0,weatherlink.com 1.10,2013-07-22 04:19:00,
2013-07-22 00:33:00,73.9,72.0,29.84,ENE,78,0.0,-999.0,92,-99.99,,,0.00,0,weatherlink.com 1.10,2013-07-22 04:33:00,
2013-07-22 00:49:00,73.4,71.0,29.84,ENE,78,0.0,-999.0,93,-99.99,,,0.00,0,weatherlink.com 1.10,2013-07-22 04:49:00,
2013-07-22 01:04:00,72.9,71.0,29.84,ENE,78,0.0,-999.0,94,-99.99,,,0.00,0,weatherlink.com 1.10,2013-07-22 05:04:00,
2013-07-22 01:19:00,72.7,71.0,29.83,ENE,77,0.0,-999.0,94,-99.99,,,0.00,0,weatherlink.com 1.10,2013-07-22 05:19:00,
2013-07-22 01:34:00,72.8,71.0,29.82,ENE,77,0.0,-999.0,94,-99.99,,,0.00,0,weatherlink.com 1.10,2013-07-22 05:34:00,
2013-07-22 01:49:00,72.6,71.0,29.82,ENE,77,0.0,-999.0,94,-99.99,,,0.00,0,weatherlink.com 1.10,2013-07-22 05:49:00,
2013-07-22 02:04:00,72.3,71.0,29.82,ENE,77,0.0,-999.0,94,-99.99,,,0.00,0,weatherlink.com 1.10,2013-07-22 06:04:00,
2013-07-22 02:19:00,72.2,70.0,29.82,ENE,77,0.0,-999.0,94,-99.99,,,0.00,0,weatherlink.com 1.10,2013-07-22 06:19:00,
2013-07-22 02:34:00,72.5,71.0,29.82,ENE,75,0.0,-999.0,94,-99.99,,,0.00,0,weatherlink.com 1.10,2013-07-22 06:34:00,
2013-07-22 02:49:00,72.5,71.0,29.82,ENE,75,0.0,-999.0,94,-99.99,,,0.00,0,weatherlink.com 1.10,2013-07-22 06:49:00,
2013-07-22 03:04:00,72.3,71.0,29.81,ENE,75,0.0,-999.0,94,-99.99,,,0.00,0,weatherlink.com 1.10,2013-07-22 07:04:00,
2013-07-22 03:19:00,72.1,71.0,29.80,ENE,75,0.0,-999.0,95,-99.99,,,0.00,0,weatherlink.com 1.10,2013-07-22 07:19:00,
2013-07-22 03:34:00,72.1,71.0,29.80,ENE,75,0.0,-999.0,95,-99.99,,,0.00,0,weatherlink.com 1.10,2013-07-22 07:34:00,
2013-07-22 03:49:00,72.1,71.0,29.80,ENE,77,0.0,-999.0,95,-99.99,,,0.00,0,weatherlink.com 1.10,2013-07-22 07:49:00,
2013-07-22 04:04:00,72.4,71.0,29.80,ENE,64,0.0,-999.0,95,-99.99,,,0.00,0,weatherlink.com 1.10,2013-07-22 08:04:00,
2013-07-22 04:19:00,72.4,71.0,29.80,East,83,2.0,-999.0,94,-99.99,,,0.00,0,weatherlink.com 1.10,2013-07-22 08:19:00,
2013-07-22 04:33:00,72.2,70.0,29.80,East,87,0.0,-999.0,94,-99.99,,,0.02,0,weatherlink.com 1.10,2013-07-22 08:33:00,
2013-07-22 04:49:00,71.9,70.0,29.80,East,88,1.0,-999.0,94,-99.99,,,0.03,0,weatherlink.com 1.10,2013-07-22 08:49:00,
2013-07-22 05:04:00,71.3,70.0,29.81,ENE,60,2.0,-999.0,94,-99.99,,,0.04,0,weatherlink.com 1.10,2013-07-22 09:04:00,
2013-07-22 05:19:00,70.9,69.0,29.82,ENE,62,2.0,-999.0,94,-99.99,,,0.07,0,weatherlink.com 1.10,2013-07-22 09:19:00,
2013-07-22 05:34:00,70.3,69.0,29.82,NE,41,2.0,-999.0,95,-99.99,,,0.09,0,weatherlink.com 1.10,2013-07-22 09:34:00,
2013-07-22 05:49:00,69.8,68.0,29.82,ENE,75,0.0,-999.0,95,-99.99,,,0.31,0,weatherlink.com 1.10,2013-07-22 09:49:00,
2013-07-22 06:04:00,69.3,68.0,29.82,NE,43,0.0,-999.0,95,-99.99,,,0.46,0,weatherlink.com 1.10,2013-07-22 10:04:00,
2013-07-22 06:19:00,69.1,68.0,29.82,ENE,65,1.0,-999.0,96,-99.99,,,0.54,0,weatherlink.com 1.10,2013-07-22 10:19:00,
2013-07-22 06:34:00,68.9,68.0,29.82,East,79,0.0,-999.0,96,-99.99,,,0.59,0,weatherlink.com 1.10,2013-07-22 10:34:00,
2013-07-22 06:49:00,68.6,68.0,29.82,ESE,110,2.0,-999.0,96,-99.99,,,0.63,0,weatherlink.com 1.10,2013-07-22 10:49:00,
2013-07-22 07:04:00,68.4,67.0,29.82,ESE,104,0.0,-999.0,96,-99.99,,,0.67,0,weatherlink.com 1.10,2013-07-22 11:04:00,
2013-07-22 07:19:00,68.4,67.0,29.82,East,87,0.0,-999.0,96,-99.99,,,0.71,0,weatherlink.com 1.10,2013-07-22 11:19:00,
2013-07-22 07:34:00,68.3,68.0,29.82,NE,48,0.0,-999.0,97,-99.99,,,0.74,14,weatherlink.com 1.10,2013-07-22 11:34:00,
2013-07-22 07:49:00,67.8,67.0,29.82,NE,47,1.0,-999.0,96,-99.99,,,0.76,14,weatherlink.com 1.10,2013-07-22 11:49:00,
2013-07-22 08:04:00,67.4,66.0,29.82,NNE,30,4.0,-999.0,96,-99.99,,,0.76,18,weatherlink.com 1.10,2013-07-22 12:04:00,
2013-07-22 08:19:00,67.0,66.0,29.82,ENE,65,0.0,-999.0,96,-99.99,,,0.76,33,weatherlink.com 1.10,2013-07-22 12:19:00,
2013-07-22 08:33:00,67.0,66.0,29.83,ENE,59,0.0,-999.0,96,-99.99,,,0.76,44,weatherlink.com 1.10,2013-07-22 12:33:00,
2013-07-22 08:49:00,67.2,66.0,29.83,NE,36,4.0,-999.0,96,-99.99,,,0.77,79,weatherlink.com 1.10,2013-07-22 12:49:00,
2013-07-22 09:04:00,67.5,66.0,29.82,NNE,27,2.0,-999.0,96,-99.99,,,0.77,72,weatherlink.com 1.10,2013-07-22 13:04:00,
2013-07-22 09:19:00,67.7,67.0,29.82,NNE,27,1.0,-999.0,97,-99.99,,,0.77,70,weatherlink.com 1.10,2013-07-22 13:19:00,
2013-07-22 09:34:00,67.7,67.0,29.83,ENE,59,4.0,-999.0,96,-99.99,,,0.77,77,weatherlink.com 1.10,2013-07-22 13:34:00,
2013-07-22 09:49:00,68.1,67.0,29.82,NE,46,5.0,-999.0,96,-99.99,,,0.77,193,weatherlink.com 1.10,2013-07-22 13:49:00,
2013-07-22 10:04:00,68.6,67.0,29.82,NE,50,5.0,-999.0,95,-99.99,,,0.77,250,weatherlink.com 1.10,2013-07-22 14:04:00,
2013-07-22 10:19:00,69.2,68.0,29.81,NE,43,0.0,-999.0,94,-99.99,,,0.77,279,weatherlink.com 1.10,2013-07-22 14:19:00,
2013-07-22 10:34:00,69.7,68.0,29.80,East,91,0.0,-999.0,93,-99.99,,,0.77,214,weatherlink.com 1.10,2013-07-22 14:34:00,
2013-07-22 10:49:00,69.9,68.0,29.80,SE,136,1.0,-999.0,92,-99.99,,,0.77,239,weatherlink.com 1.10,2013-07-22 14:49:00,
2013-07-22 11:04:00,70.3,68.0,29.80,East,81,5.0,-999.0,91,-99.99,,,0.77,204,weatherlink.com 1.10,2013-07-22 15:04:00,
2013-07-22 11:19:00,70.5,68.0,29.80,ENE,70,1.0,-999.0,91,-99.99,,,0.77,204,weatherlink.com 1.10,2013-07-22 15:19:00,
2013-07-22 11:34:00,71.2,68.0,29.80,SE,129,1.0,-999.0,90,-99.99,,,0.77,195,weatherlink.com 1.10,2013-07-22 15:34:00,
2013-07-22 11:49:00,71.4,69.0,29.80,SE,137,6.0,-999.0,91,-99.99,,,0.77,264,weatherlink.com 1.10,2013-07-22 15:49:00,
2013-07-22 12:04:00,71.7,69.0,29.80,SSE,167,3.0,-999.0,90,-99.99,,,0.77,299,weatherlink.com 1.10,2013-07-22 16:04:00,
2013-07-22 12:19:00,72.4,68.0,29.80,SSE,160,1.0,-999.0,87,-99.99,,,0.77,271,weatherlink.com 1.10,2013-07-22 16:19:00,
2013-07-22 12:33:00,73.6,69.0,29.81,SSE,147,3.0,-999.0,85,-99.99,,,0.77,577,weatherlink.com 1.10,2013-07-22 16:33:00,
2013-07-22 12:48:00,75.2,70.0,29.80,ENE,77,0.0,-999.0,83,-99.99,,,0.77,1037,weatherlink.com 1.10,2013-07-22 16:48:00,
2013-07-22 13:03:00,76.9,71.0,29.80,East,88,0.0,-999.0,82,-99.99,,,0.77,1097,weatherlink.com 1.10,2013-07-22 17:03:00,
2013-07-22 13:18:00,77.6,71.0,29.80,East,80,2.0,-999.0,80,-99.99,,,0.77,1079,weatherlink.com 1.10,2013-07-22 17:18:00,
2013-07-22 13:33:00,77.8,70.0,29.79,SE,130,0.0,-999.0,78,-99.99,,,0.77,429,weatherlink.com 1.10,2013-07-22 17:33:00,
2013-07-22 13:48:00,78.2,71.0,29.79,SSE,150,4.0,-999.0,78,-99.99,,,0.77,1121,weatherlink.com 1.10,2013-07-22 17:48:00,
2013-07-22 14:03:00,78.4,70.0,29.79,North,4,1.0,-999.0,76,-99.99,,,0.77,357,weatherlink.com 1.10,2013-07-22 18:03:00,
2013-07-22 14:18:00,78.7,71.0,29.79,SSE,155,3.0,-999.0,76,-99.99,,,0.77,338,weatherlink.com 1.10,2013-07-22 18:18:00,
2013-07-22 14:33:00,79.6,71.0,29.78,SE,137,2.0,-999.0,75,-99.99,,,0.77,332,weatherlink.com 1.10,2013-07-22 18:33:00,
2013-07-22 14:48:00,79.4,70.0,29.78,ENE,61,3.0,-999.0,72,-99.99,,,0.77,374,weatherlink.com 1.10,2013-07-22 18:48:00,
2013-07-22 15:03:00,79.0,71.0,29.77,NE,41,2.0,-999.0,76,-99.99,,,0.77,1129,weatherlink.com 1.10,2013-07-22 19:03:00,
2013-07-22 15:33:00,81.0,69.0,29.77,North,359,2.0,-999.0,68,-99.99,,,0.77,909,weatherlink.com 1.10,2013-07-22 19:33:00,
2013-07-22 15:48:00,82.3,71.0,29.76,East,97,2.0,-999.0,69,-99.99,,,0.77,896,weatherlink.com 1.10,2013-07-22 19:48:00,
2013-07-22 16:03:00,80.9,71.0,29.76,NNE,27,3.0,-999.0,71,-99.99,,,0.77,221,weatherlink.com 1.10,2013-07-22 20:03:00,
2013-07-22 16:18:00,79.3,72.0,29.76,North,4,4.0,-999.0,77,-99.99,,,0.77,178,weatherlink.com 1.10,2013-07-22 20:18:00,
2013-07-22 16:33:00,80.4,70.0,29.76,NNW,342,0.0,-999.0,71,-99.99,,,0.77,262,weatherlink.com 1.10,2013-07-22 20:33:00,
2013-07-22 16:48:00,78.9,69.0,29.75,NNW,335,2.0,-999.0,72,-99.99,,,0.77,209,weatherlink.com 1.10,2013-07-22 20:48:00,
2013-07-22 17:03:00,80.7,70.0,29.75,NE,34,1.0,-999.0,69,-99.99,,,0.77,700,weatherlink.com 1.10,2013-07-22 21:03:00,
2013-07-22 17:18:00,80.9,70.0,29.75,NNW,348,6.0,-999.0,69,-99.99,,,0.77,640,weatherlink.com 1.10,2013-07-22 21:18:00,
2013-07-22 17:33:00,80.9,70.0,29.74,NE,51,1.0,-999.0,70,-99.99,,,0.77,691,weatherlink.com 1.10,2013-07-22 21:33:00,
2013-07-22 17:48:00,80.8,71.0,29.75,NE,37,0.0,-999.0,72,-99.99,,,0.77,193,weatherlink.com 1.10,2013-07-22 21:48:00,
2013-07-22 18:03:00,81.1,70.0,29.74,NNE,30,4.0,-999.0,69,-99.99,,,0.77,200,weatherlink.com 1.10,2013-07-22 22:03:00,
2013-07-22 18:18:00,80.3,71.0,29.74,NNE,16,0.0,-999.0,74,-99.99,,,0.77,153,weatherlink.com 1.10,2013-07-22 22:18:00,
2013-07-22 18:33:00,81.2,70.0,29.74,SSE,163,0.0,-999.0,69,-99.99,,,0.77,411,weatherlink.com 1.10,2013-07-22 22:33:00,
2013-07-22 18:48:00,81.1,70.0,29.73,SSE,164,0.0,-999.0,69,-99.99,,,0.77,127,weatherlink.com 1.10,2013-07-22 22:48:00,
2013-07-22 19:03:00,81.3,71.0,29.73,SSE,163,0.0,-999.0,70,-99.99,,,0.77,88,weatherlink.com 1.10,2013-07-22 23:03:00,
2013-07-22 19:18:00,81.7,70.0,29.73,SSE,164,0.0,-999.0,68,-99.99,,,0.77,264,weatherlink.com 1.10,2013-07-22 23:18:00,
2013-07-22 19:33:00,81.3,71.0,29.73,SSE,164,0.0,-999.0,70,-99.99,,,0.77,216,weatherlink.com 1.10,2013-07-22 23:33:00,
2013-07-22 19:49:00,80.7,71.0,29.73,SSE,164,0.0,-999.0,72,-99.99,,,0.77,163,weatherlink.com 1.10,2013-07-22 23:49:00,
2013-07-22 20:03:00,79.9,71.0,29.73,SSE,164,0.0,-999.0,75,-99.99,,,0.77,116,weatherlink.com 1.10,2013-07-23 00:03:00,
2013-07-22 20:18:00,79.2,72.0,29.73,SSE,164,0.0,-999.0,78,-99.99,,,0.77,76,weatherlink.com 1.10,2013-07-23 00:18:00,
2013-07-22 20:33:00,78.5,73.0,29.73,SSE,164,0.0,-999.0,82,-99.99,,,0.77,39,weatherlink.com 1.10,2013-07-23 00:33:00,
2013-07-22 20:48:00,77.1,72.0,29.73,SSE,164,0.0,-999.0,85,-99.99,,,0.77,14,weatherlink.com 1.10,2013-07-23 00:48:00,
2013-07-22 21:03:00,75.3,71.0,29.73,SSE,168,0.0,-999.0,87,-99.99,,,0.77,0,weatherlink.com 1.10,2013-07-23 01:03:00,
2013-07-22 21:18:00,74.8,71.0,29.73,SSE,168,0.0,-999.0,88,-99.99,,,0.77,0,weatherlink.com 1.10,2013-07-23 01:18:00,
2013-07-22 21:33:00,74.1,70.0,29.74,SSE,168,0.0,-999.0,88,-99.99,,,0.77,0,weatherlink.com 1.10,2013-07-23 01:33:00,
2013-07-22 21:48:00,73.0,70.0,29.74,SSE,168,0.0,-999.0,89,-99.99,,,0.77,0,weatherlink.com 1.10,2013-07-23 01:48:00,
2013-07-22 22:03:00,72.5,70.0,29.75,SSE,168,0.0,-999.0,90,-99.99,,,0.77,0,weatherlink.com 1.10,2013-07-23 02:03:00,
2013-07-22 22:18:00,71.7,69.0,29.75,SSE,168,0.0,-999.0,92,-99.99,,,0.77,0,weatherlink.com 1.10,2013-07-23 02:18:00,
2013-07-22 22:33:00,71.2,69.0,29.75,SSE,168,0.0,-999.0,92,-99.99,,,0.77,0,weatherlink.com 1.10,2013-07-23 02:33:00,
2013-07-22 22:48:00,70.5,69.0,29.75,SSE,168,0.0,-999.0,94,-99.99,,,0.77,0,weatherlink.com 1.10,2013-07-23 02:48:00,
2013-07-22 23:03:00,70.2,69.0,29.75,SSE,168,0.0,-999.0,94,-99.99,,,0.77,0,weatherlink.com 1.10,2013-07-23 03:03:00,
2013-07-22 23:18:00,70.2,69.0,29.75,SSE,168,0.0,-999.0,94,-99.99,,,0.77,0,weatherlink.com 1.10,2013-07-23 03:18:00,
2013-07-22 23:33:00,70.2,69.0,29.76,SSE,168,0.0,-999.0,94,-99.99,,,0.77,0,weatherlink.com 1.10,2013-07-23 03:33:00,
2013-07-22 23:48:00,69.8,68.0,29.75,SSE,168,0.0,-999.0,94,-99.99,,,0.77,0,weatherlink.com 1.10,2013-07-23 03:48:00,